Terug naar catalogus

STARLINK-33969

ActiefCommunicatieVLEO
NORAD 63855·PAYLOAD·🇺🇸 United States

Gelanceerd May 7, 2025 vanaf Cape Canaveral Space Force Station

Loading…

Volgende Passages (komende 24 uur)

TLE

VersSource: CelesTrak SupGP

Epoch: Sep 14, 2026, 20:57 UTC

1 63855C 25093V   26257.87340278 -.00012726  00000+0 -46102-3 0  2579
2 63855  43.0031  89.4153 0001318 273.3911 173.1951 15.27578028    12

Volg STARLINK-33969 in realtime met AllMySat

Download on the App Store